#timestamp,LO_Frequency,Hit,StdDev 
1549915215.4,286046998.6,N
1549915235.2,286046999.0,N
1549915255.1,286046999.2,N
1549915256.0,286046999.2,N
1549915275.8,286046998.9,N
1549915295.6,286046997.1,N
1549915315.5,286046997.3,N
1549915335.3,286046997.9,N
1549915355.2,286046999.4,N
1549915375.9,286047000.3,N
1549915395.7,286047001.1,N
1549915415.6,286047000.5,N
1549915435.4,286047002.0,N
1549915455.2,286047000.3,N
1549915475.1,286047002.3,N
1549915476.0,286047002.3,N
1549915495.8,286047002.4,N
1549915515.7,286047001.0,N
1549915535.5,286047002.0,N
1549915555.3,286047002.5,N
1549915575.2,286047000.8,N
1549915595.0,286047000.0,N
1549915595.9,286047000.0,N
1549915615.7,286047002.4,N
1549915635.6,286047003.4,N
1549915655.4,286047003.6,N
1549915675.3,286047003.8,N
1549915695.1,286047000.1,N
1549915715.8,286046998.4,N
1549915735.7,286046999.0,N
1549915755.5,286046999.6,N
1549915775.4,286047000.0,N
1549915795.2,286047002.6,N
1549915815.0,286047001.8,N
1549915815.9,286047001.8,N
1549915835.8,286047002.0,N
1549915855.6,286047000.7,N
1549915875.4,286047000.5,N
1549915895.3,286046998.3,N
1549915915.1,286046999.1,N
1549915935.9,286047000.8,N
1549915955.7,286047002.8,N
1549915975.5,286047002.0,N
1549915995.4,286047001.3,N
1549916015.2,286047003.1,N
1549916035.0,286047000.2,N
1549916035.9,286047000.2,N
1549916055.8,286047001.0,N
1549916075.6,286047000.6,N
1549916095.5,286047000.7,N
1549916115.3,286047001.1,N
1549916135.1,286047002.4,N
1549916155.9,286047002.7,N
1549916175.7,286047004.1,N
1549916195.6,286046998.6,N
1549916215.4,286046999.6,N
1549916235.2,286046996.9,N
1549916255.1,286046999.4,N
1549916256.0,286046999.4,N
1549916275.8,286047001.2,N
1549916295.7,286046998.4,N
1549916315.5,286047001.1,N
1549916335.3,286047000.3,N
1549916355.2,286047001.8,N
1549916375.9,286047001.2,N
1549916395.7,286047002.8,N
1549916415.6,286047002.2,N
1549916435.4,286047000.7,N
1549916455.3,286046998.5,N
1549916475.1,286047002.4,N
1549916476.0,286047002.4,N
1549916495.8,286047002.4,N
1549916515.7,286047001.9,N
1549916535.5,286047002.1,N
1549916555.3,286047004.1,N
1549916575.2,286046999.8,N
1549916595.0,286047002.1,N
1549916595.9,286047002.1,N
1549916615.8,286047003.6,N
1549916635.6,286047004.5,N
1549916655.5,286047006.8,Y
1549916675.3,286047005.4,P
1549916695.1,286047004.2,N
1549916715.9,286047002.5,N
1549916735.7,286047000.3,N
1549916755.6,286046998.6,N
1549916775.4,286046999.0,N
1549916795.2,286046996.6,N
1549916815.1,286046996.6,N
1549916816.0,286046996.6,N
1549916835.8,286046997.2,N
1549916855.6,286046997.5,N
1549916875.5,286046994.9,N
1549916895.3,286046994.9,N
1549916915.2,286046995.1,N
1549916935.9,286046995.0,N
1549916955.7,286046996.9,N
1549916975.6,286046998.9,N
1549916995.4,286047001.2,N
1549917015.2,286047000.8,N
1549917035.1,286047000.0,N
1549917036.0,286047000.0,N
1549917055.8,286047000.2,N
1549917075.7,286047000.1,N
1549917095.5,286046999.2,N
1549917115.3,286046999.1,N
1549917135.2,286047000.0,N
1549917155.0,286047002.6,N
1549917155.9,286047002.6,N
1549917175.8,286046999.3,N
1549917195.6,286046998.6,N
1549917215.4,286047000.7,N
1549917235.3,286046999.8,N
1549917255.1,286046997.2,N
1549917275.9,286046996.6,N
1549917295.7,286046999.3,N
1549917315.5,286046998.7,N
1549917335.4,286047000.8,N
1549917355.2,286046999.7,N
1549917375.0,286047004.0,N
1549917376.0,286047004.0,N
1549917395.8,286047001.3,N
1549917415.6,286047001.8,N
1549917435.5,286047003.9,N
1549917455.3,286047001.3,N
1549917475.1,286047002.9,N
1549917495.9,286047004.0,N
1549917515.7,286047002.7,N
1549917535.6,286047000.7,N
1549917555.4,286047000.7,N
1549917575.2,286046998.6,N
1549917595.1,286046998.5,N
1549917596.0,286046998.5,N
1549917615.8,286047000.8,N
1549917635.6,286047000.0,N
1549917655.5,286047002.1,N
1549917675.3,286047002.6,N
1549917695.2,286047001.6,N
1549917715.9,286047003.6,N
1549917735.7,286047004.4,N
1549917755.6,286047002.9,N
1549917775.4,286047003.3,N
1549917795.2,286047001.3,N
1549917815.1,286047003.6,N
1549917816.0,286047003.6,N
1549917835.8,286047001.5,N
1549917855.7,286047001.5,N
1549917875.5,286047000.1,N
1549917895.3,286047002.5,N
1549917915.2,286047001.5,N
1549917935.0,286047003.9,N
1549917935.9,286047003.9,N
1549917955.7,286047001.4,N
1549917975.6,286047005.4,Y
1549917995.4,286047003.6,P
1549918015.3,286047002.6,P
1549918035.1,286047000.4,N
1549918055.8,286047000.3,N
1549918075.7,286046999.7,N
1549918095.5,286047002.4,N
1549918115.4,286047002.6,N
1549918135.2,286047001.1,N
1549918155.0,286046999.3,N
1549918155.9,286046999.3,N
1549918175.8,286046998.7,N
1549918195.6,286046998.9,N
1549918215.4,286047001.1,N
1549918235.3,286046996.7,N
1549918255.1,286046998.7,N
1549918275.9,286046999.1,N
1549918295.7,286046996.8,N
1549918315.5,286046995.0,N
1549918335.4,286046997.7,N
1549918355.2,286046997.1,N
1549918375.0,286046996.6,N
1549918375.9,286046996.6,N
1549918395.8,286046998.2,N
1549918415.6,286047001.6,N
1549918435.5,286047004.4,N
1549918455.3,286047002.2,N
1549918475.1,286046999.8,N
1549918495.9,286047000.8,N
1549918515.7,286046998.2,N
1549918535.5,286046998.1,N
1549918555.4,286046999.5,N
1549918575.2,286046999.5,N
1549918595.1,286047001.2,N
1549918596.0,286047001.2,N
1549918615.8,286047000.8,N
1549918635.6,286046998.2,N
1549918655.5,286046998.2,N
1549918675.3,286046999.0,N
1549918695.1,286046998.9,N
1549918715.9,286046999.2,N
1549918735.7,286046996.7,N
1549918755.6,286046999.1,N
1549918775.4,286046999.1,N
1549918795.2,286046996.5,N
